This is the latest recevied weather packets stored in our database for station/object KK7KHO. If no packets are shown the sender has not sent any weather packets the latest 10 day(s).
| Time | Temp. | Humidity | Pressure | Rain* | Wind** | Luminosity | Snow |
|---|---|---|---|---|---|---|---|
| 1777882932 | 12.78° C | 77% | 1008.6 hPa | 0 mm | - | 0 W/m² | - |
| 1777882629 | 12.22° C | 79% | 1008.7 hPa | 0 mm | - | 0 W/m² | - |
| 1777882325 | 12.22° C | 81% | 1008.7 hPa | 0 mm | - | 0 W/m² | - |
| 1777882021 | 12.22° C | 78% | 1008.5 hPa | 0 mm | - | 0 W/m² | - |
| 1777881718 | 12.78° C | 79% | 1008.5 hPa | 0 mm | - | 0 W/m² | - |
| 1777881415 | 12.78° C | 77% | 1008.7 hPa | 0 mm | - | 0 W/m² | - |
| 1777881112 | 13.33° C | 76% | 1008.4 hPa | 0 mm | - | 0 W/m² | - |
| 1777880810 | 13.33° C | 76% | 1008.7 hPa | 0 mm | - | 0 W/m² | - |
| 1777880507 | 12.78° C | 76% | 1008.6 hPa | 0 mm | - | 0 W/m² | - |
| 1777880206 | 12.78° C | 79% | 1008.8 hPa | 0 mm | - | 0 W/m² | - |
| 1777879904 | 12.78° C | 80% | 1008.6 hPa | 0 mm | - | 0 W/m² | - |
| 1777879602 | 12.78° C | 79% | 1008.7 hPa | 0 mm | - | 0 W/m² | - |
| 1777879298 | 12.78° C | 79% | 1008.6 hPa | 0 mm | - | 0 W/m² | - |
| 1777878995 | 12.78° C | 80% | 1008.6 hPa | 0 mm | - | 0 W/m² | - |
| 1777878693 | 12.78° C | 79% | 1008.7 hPa | 0 mm | - | 0 W/m² | - |
| 1777878390 | 12.78° C | 79% | 1008.7 hPa | 0 mm | - | 0 W/m² | - |
| 1777878086 | 12.78° C | 79% | 1008.6 hPa | 0 mm | - | 0 W/m² | - |
| 1777877782 | 13.33° C | 78% | 1008.6 hPa | 0 mm | - | 0 W/m² | - |
| 1777877480 | 13.89° C | 76% | 1008.5 hPa | 0 mm | - | 0 W/m² | - |
| 1777877176 | 13.89° C | 74% | 1008.4 hPa | 0 mm | - | 0 W/m² | - |
| 1777876874 | 13.89° C | 75% | 1008.5 hPa | 0 mm | - | 0 W/m² | - |
| 1777876571 | 13.89° C | 75% | 1008.4 hPa | 0 mm | - | 0 W/m² | - |
| 1777876269 | 13.89° C | 74% | 1008.6 hPa | 0 mm | - | 0 W/m² | - |
| 1777875964 | 13.89° C | 75% | 1008.5 hPa | 0 mm | - | 0 W/m² | - |
| 1777875660 | 13.89° C | 74% | 1008.2 hPa | 0 mm | - | 0 W/m² | - |
* Rain latest hour (hover to see other rain measurements)
** Current wind speed in m/s (hover to see current wind gust speed)